When you browse on this site, cookies collect data to enhance your experience and personalize the content and advertising you see.
Visit our Privacy Policy to learn more. By continuing to use the site, you agree to this use of cookies and data.
  • en Suisse
  • Liste des pays
  • À 7 jours
  • Température de l'eau
  • Carte satellitaire
  • Carte météo
  • Widgets météo
  • user-avatar
    Se connecter

    Météo par heure à Bishkek

    Ce jour, 18 Juin, Mardi

    Heure Température Précipitation Vent Pression Humidité
    00:00 -2°C° 0 mm 3 m/s 486 mmHg 73%
    01:00 -2°C° 0 mm 3 m/s 485 mmHg 73%
    02:00 -2°C° 0 mm 3 m/s 485 mmHg 72%
    03:00 -4°C° 0 mm 3 m/s 485 mmHg 72%
    04:00 -4°C° 0 mm 3 m/s 485 mmHg 73%
    05:00 -4°C° 0 mm 3 m/s 485 mmHg 73%
    06:00 -1°C° 0 mm 3 m/s 486 mmHg 68%
    07:00 +2°C° 0 mm 2 m/s 488 mmHg 63%
    08:00 +4°C° 0 mm 2 m/s 489 mmHg 59%
    09:00 +4°C° 0.1 mm 2 m/s 489 mmHg 57%
    10:00 +5°C° 0.1 mm 2 m/s 490 mmHg 55%
    11:00 +6°C° 0.1 mm 2 m/s 490 mmHg 52%
    12:00 +6°C° 0.7 mm 2 m/s 490 mmHg 54%
    13:00 +5°C° 0.7 mm 3 m/s 490 mmHg 56%
    14:00 +5°C° 0.7 mm 3 m/s 490 mmHg 58%
    15:00 +4°C° 0.9 mm 3 m/s 489 mmHg 65%
    16:00 +1°C° 0.9 mm 4 m/s 488 mmHg 72%
    17:00 0°C° 0.9 mm 4 m/s 487 mmHg 79%
    18:00 0°C° 2.2 mm 3 m/s 487 mmHg 82%
    19:00 -1°C° 2.2 mm 3 m/s 487 mmHg 84%
    20:00 -2°C° 2.2 mm 2 m/s 486 mmHg 86%
    21:00 -2°C° 0.1 mm 2 m/s 486 mmHg 84%
    22:00 -3°C° 0.1 mm 2 m/s 486 mmHg 81%
    23:00 -4°C° 0.1 mm 3 m/s 486 mmHg 79%

    Demain, 19 Juin, Mercredi

    Heure Température Précipitation Vent Pression Humidité
    00:00 -4°C° 0 mm 3 m/s 486 mmHg 78%
    01:00 -4°C° 0 mm 3 m/s 485 mmHg 77%
    02:00 -4°C° 0 mm 3 m/s 485 mmHg 76%
    03:00 -4°C° 0 mm 3 m/s 485 mmHg 75%
    04:00 -4°C° 0 mm 3 m/s 485 mmHg 75%
    05:00 -4°C° 0 mm 3 m/s 485 mmHg 74%
    06:00 -2°C° 0.1 mm 2 m/s 486 mmHg 73%
    07:00 +1°C° 0.1 mm 2 m/s 487 mmHg 73%
    08:00 +3°C° 0.1 mm 2 m/s 488 mmHg 72%
    09:00 +3°C° 0.4 mm 2 m/s 489 mmHg 70%
    10:00 +5°C° 0.4 mm 1 m/s 489 mmHg 68%
    11:00 +6°C° 0.4 mm 1 m/s 489 mmHg 66%
    12:00 +6°C° 1 mm 1 m/s 489 mmHg 65%
    13:00 +5°C° 1 mm 2 m/s 489 mmHg 64%
    14:00 +5°C° 1 mm 2 m/s 489 mmHg 64%
    15:00 +5°C° 0.7 mm 2 m/s 488 mmHg 68%
    16:00 +3°C° 0.7 mm 3 m/s 488 mmHg 73%
    17:00 +2°C° 0.7 mm 3 m/s 488 mmHg 77%
    18:00 +2°C° 0.5 mm 2 m/s 488 mmHg 82%
    19:00 +1°C° 0.5 mm 2 m/s 487 mmHg 86%
    20:00 +1°C° 0.5 mm 1 m/s 487 mmHg 90%
    21:00 +1°C° 0.6 mm 1 m/s 487 mmHg 90%
    22:00 -1°C° 0.6 mm 2 m/s 487 mmHg 89%
    23:00 -2°C° 0.6 mm 2 m/s 487 mmHg 88%

    Après-demain, 20 Juin, Jeudi

    Heure Température Précipitation Vent Pression Humidité
    00:00 -2°C° 0 mm 2 m/s 486 mmHg 86%
    01:00 -4°C° 0 mm 3 m/s 486 mmHg 84%
    02:00 -4°C° 0 mm 3 m/s 485 mmHg 82%
    03:00 -4°C° 0 mm 3 m/s 485 mmHg 81%
    04:00 -4°C° 0 mm 3 m/s 485 mmHg 79%
    05:00 -4°C° 0 mm 3 m/s 486 mmHg 78%
    06:00 -1°C° 0 mm 2 m/s 487 mmHg 74%
    07:00 +2°C° 0 mm 2 m/s 488 mmHg 70%
    08:00 +4°C° 0 mm 2 m/s 490 mmHg 66%
    09:00 +5°C° 0.1 mm 2 m/s 490 mmHg 62%
    10:00 +7°C° 0.1 mm 1 m/s 490 mmHg 59%
    11:00 +7°C° 0.1 mm 1 m/s 491 mmHg 56%
    12:00 +7°C° 0.9 mm 2 m/s 491 mmHg 58%
    13:00 +7°C° 0.9 mm 2 m/s 490 mmHg 60%
    14:00 +7°C° 0.9 mm 2 m/s 490 mmHg 62%
    15:00 +6°C° 0.8 mm 2 m/s 490 mmHg 64%
    16:00 +6°C° 0.8 mm 2 m/s 490 mmHg 66%
    17:00 +5°C° 0.8 mm 2 m/s 489 mmHg 67%
    18:00 +4°C° 0.2 mm 2 m/s 489 mmHg 70%
    19:00 +2°C° 0.2 mm 2 m/s 488 mmHg 72%
    20:00 +1°C° 0.2 mm 2 m/s 487 mmHg 74%
    21:00 +1°C° 0 mm 2 m/s 487 mmHg 74%
    22:00 -1°C° 0 mm 2 m/s 487 mmHg 73%
    23:00 -1°C° 0 mm 3 m/s 487 mmHg 72%

    21 Juin, Vendredi

    Heure Température Précipitation Vent Pression Humidité
    00:00 -1°C° 0 mm 3 m/s 486 mmHg 72%
    01:00 -1°C° 0 mm 3 m/s 486 mmHg 71%
    02:00 -1°C° 0 mm 3 m/s 486 mmHg 71%
    03:00 -1°C° 0 mm 3 m/s 486 mmHg 71%
    04:00 -1°C° 0 mm 3 m/s 486 mmHg 72%
    05:00 -1°C° 0 mm 3 m/s 487 mmHg 73%
    06:00 +2°C° 0.1 mm 2 m/s 488 mmHg 67%
    07:00 +4°C° 0.1 mm 2 m/s 490 mmHg 62%
    08:00 +7°C° 0.1 mm 1 m/s 491 mmHg 57%
    09:00 +8°C° 0.2 mm 1 m/s 491 mmHg 54%
    10:00 +8°C° 0.2 mm 2 m/s 492 mmHg 52%
    11:00 +8°C° 0.2 mm 2 m/s 492 mmHg 49%
    12:00 +9°C° 0.8 mm 2 m/s 492 mmHg 49%
    13:00 +10°C° 0.8 mm 1 m/s 492 mmHg 49%
    14:00 +10°C° 0.8 mm 1 m/s 492 mmHg 50%
    15:00 +8°C° 0.8 mm 2 m/s 491 mmHg 54%
    16:00 +8°C° 0.8 mm 2 m/s 490 mmHg 58%
    17:00 +7°C° 0.8 mm 2 m/s 490 mmHg 62%
    18:00 +5°C° 0.6 mm 2 m/s 489 mmHg 67%
    19:00 +4°C° 0.6 mm 2 m/s 488 mmHg 72%
    20:00 +2°C° 0.6 mm 2 m/s 487 mmHg 78%
    21:00 +2°C° 0.1 mm 2 m/s 487 mmHg 76%
    22:00 0°C° 0.1 mm 3 m/s 487 mmHg 75%
    23:00 0°C° 0.1 mm 3 m/s 486 mmHg 73%

    22 Juin, Samedi

    Heure Température Précipitation Vent Pression Humidité
    00:00 0°C° 0 mm 3 m/s 486 mmHg 72%
    01:00 -1°C° 0 mm 4 m/s 486 mmHg 71%
    02:00 -1°C° 0 mm 4 m/s 486 mmHg 70%
    03:00 -1°C° 0 mm 4 m/s 486 mmHg 70%
    04:00 0°C° 0 mm 3 m/s 487 mmHg 70%
    05:00 0°C° 0 mm 3 m/s 487 mmHg 70%
    06:00 +1°C° 0.3 mm 3 m/s 488 mmHg 69%
    07:00 +2°C° 0.3 mm 3 m/s 488 mmHg 69%
    08:00 +3°C° 0.3 mm 3 m/s 489 mmHg 69%
    09:00 +4°C° 0.8 mm 2 m/s 489 mmHg 70%
    10:00 +4°C° 0.8 mm 2 m/s 489 mmHg 71%
    11:00 +4°C° 0.8 mm 2 m/s 489 mmHg 72%
    12:00 +5°C° 0.7 mm 2 m/s 490 mmHg 70%
    13:00 +5°C° 0.7 mm 2 m/s 490 mmHg 68%
    14:00 +6°C° 0.7 mm 2 m/s 490 mmHg 66%
    15:00 +5°C° 0.4 mm 2 m/s 490 mmHg 66%
    16:00 +5°C° 0.4 mm 2 m/s 490 mmHg 67%
    17:00 +4°C° 0.4 mm 2 m/s 489 mmHg 67%
    18:00 +4°C° 0.1 mm 1 m/s 489 mmHg 70%
    19:00 +3°C° 0.1 mm 1 m/s 488 mmHg 73%
    20:00 +1°C° 0.1 mm 1 m/s 488 mmHg 75%
    21:00 +1°C° 0.1 mm 1 m/s 488 mmHg 75%
    22:00 -1°C° 0.1 mm 2 m/s 488 mmHg 76%
    23:00 -1°C° 0.1 mm 2 m/s 488 mmHg 76%

    23 Juin, Dimanche

    Heure Température Précipitation Vent Pression Humidité
    00:00 -1°C° 0 mm 2 m/s 488 mmHg 74%
    01:00 -1°C° 0 mm 2 m/s 488 mmHg 72%
    02:00 +1°C° 0 mm 1 m/s 488 mmHg 70%
    03:00 +1°C° 0 mm 1 m/s 488 mmHg 71%
    04:00 +1°C° 0 mm 1 m/s 488 mmHg 72%
    05:00 +1°C° 0 mm 1 m/s 488 mmHg 72%
    06:00 +2°C° 0.1 mm 1 m/s 489 mmHg 68%
    07:00 +3°C° 0.1 mm 1 m/s 491 mmHg 64%
    08:00 +5°C° 0.1 mm 1 m/s 492 mmHg 60%
    09:00 +5°C° 0.2 mm 2 m/s 492 mmHg 58%
    10:00 +5°C° 0.2 mm 2 m/s 493 mmHg 56%
    11:00 +5°C° 0.2 mm 3 m/s 493 mmHg 53%
    12:00 +5°C° 0.4 mm 3 m/s 493 mmHg 53%
    13:00 +7°C° 0.4 mm 3 m/s 493 mmHg 53%
    14:00 +7°C° 0.4 mm 3 m/s 493 mmHg 53%
    15:00 +5°C° 0.4 mm 3 m/s 492 mmHg 56%
    16:00 +5°C° 0.4 mm 3 m/s 492 mmHg 59%
    17:00 +4°C° 0.4 mm 3 m/s 491 mmHg 62%
    18:00 +4°C° 0.1 mm 2 m/s 490 mmHg 66%
    19:00 +2°C° 0.1 mm 2 m/s 489 mmHg 69%
    20:00 +1°C° 0.1 mm 2 m/s 489 mmHg 73%
    21:00 -1°C° 0 mm 2 m/s 488 mmHg 72%
    22:00 -1°C° 0 mm 2 m/s 488 mmHg 72%
    23:00 -2°C° 0 mm 2 m/s 487 mmHg 71%
    Voir plus